Weather History for Edwards AFB, CA

Change the Weather History Date:

Thursday, November 29, 2012

  Actual Average Record
Temperature  
Mean Temperature 57 °F -  
Max Temperature 64 °F 58 °F 75 °F (2014)
Min Temperature 50 °F 31 °F 19 °F (2010)
Degree Days  
Heating Degree Days 8    
Growing Degree Days 7 (Base 50)    
Moisture  
Dew Point 51 °F    
Average Humidity 90    
Maximum Humidity 100    
Minimum Humidity 51    
Precipitation  
Precipitation 0.00 in - - ()
Sea Level Pressure  
Sea Level Pressure 30.12 in    
Wind  
Wind Speed 9 mph (SSW)    
Max Wind Speed 29 mph    
Max Gust Speed 36 mph    
Visibility 9 miles    
Events Rain    
Averages and records for this station are not official NWS values.
T = Trace of Precipitation, MM = Missing Value Source: NWS Daily Summary

Daily Weather History Graph

Daily Weather History Graph

Search for Another Location

Airport:

Trip Planner

Search our weather history database for the weather conditions in past years. The results will help you decide how hot, cold, wet, or windy it might be!

Date:

Astronomy

Nov. 29, 2012 Rise Set
Actual Time 6:39 AM PST 4:40 PM PST
Civil Twilight 6:12 AM PST 5:07 PM PST
Nautical Twilight 5:40 AM PST 5:39 PM PST
Astronomical Twilight 5:10 AM PST 6:09 PM PST
Moon 5:47 PM PST (11/29) 7:29 AM PST (11/29)
Length of Visible Light 10h 55m
Length of Day
10h 00m
Full, 99% of the Moon is Illuminated
Nov 29
Full
Dec 6
Last Quarter
Dec 13
New
Dec 19
First Quarter
Dec 28
Full

Hourly Weather History & Observations

Time (PST) Temp. Dew Point Humidity Pressure Visibility Wind Dir Wind Speed Gust Speed Precip Events Conditions
12:13 AM 51.8 °F 51.8 °F 100% 30.13 in 10.0 mi SW 9.2 mph - N/A   Scattered Clouds
12:23 AM 53.6 °F 51.8 °F 94% 30.14 in 10.0 mi SSW 8.1 mph - N/A   Mostly Cloudy
12:58 AM 52.7 °F 52.0 °F 97% 30.11 in 10.0 mi South 6.9 mph - N/A   Mostly Cloudy
1:03 AM 51.8 °F 51.8 °F 100% 30.13 in 10.0 mi South 6.9 mph - N/A   Scattered Clouds
1:13 AM 51.8 °F 51.8 °F 100% 30.13 in 10.0 mi SSE 6.9 mph - N/A   Mostly Cloudy
1:18 AM 51.8 °F 51.8 °F 100% 30.13 in 10.0 mi SSE 5.8 mph - N/A   Mostly Cloudy
1:58 AM 51.1 °F 50.7 °F 99% 30.11 in 10.0 mi SE 5.8 mph - N/A   Mostly Cloudy
2:33 AM 50.0 °F 50.0 °F 100% 30.13 in 10.0 mi SSE 2.3 mph - N/A   Mostly Cloudy
2:38 AM 50.0 °F 50.0 °F 100% 30.12 in 10.0 mi SSE 2.3 mph - N/A   Mostly Cloudy
2:48 AM 50.0 °F 50.0 °F 100% 30.13 in 10.0 mi South 2.3 mph - N/A   Overcast
2:53 AM 50.0 °F 50.0 °F 100% 30.13 in 10.0 mi South 2.3 mph - N/A   Overcast
2:55 AM 50.0 °F 50.0 °F 100% 30.13 in 8.0 mi South 2.3 mph - N/A Rain Light Rain
2:58 AM 50.0 °F 50.0 °F 100% 30.11 in 8.0 mi South 2.3 mph - N/A   Light Drizzle
3:13 AM 50.0 °F 50.0 °F 100% 30.13 in 4.0 mi South 4.6 mph - N/A Rain Light Rain
3:23 AM 51.8 °F 51.8 °F 100% 30.13 in 5.0 mi SSW 3.5 mph - N/A Rain Light Rain
3:27 AM 51.8 °F 51.8 °F 100% 30.13 in 8.0 mi SW 4.6 mph - N/A   Overcast
3:32 AM 51.8 °F 51.8 °F 100% 30.13 in 10.0 mi SSW 5.8 mph - N/A   Overcast
3:42 AM 51.8 °F 51.8 °F 100% 30.13 in 10.0 mi SE 3.5 mph - N/A   Overcast
3:52 AM 51.8 °F 51.8 °F 100% 30.12 in 9.0 mi ESE 3.5 mph - N/A   Mostly Cloudy
3:58 AM 50.9 °F 50.9 °F 100% 30.11 in 8.0 mi SE 3.5 mph - 0.00 in   Mostly Cloudy
4:38 AM 50.0 °F 50.0 °F 100% 30.11 in 10.0 mi SW 4.6 mph - N/A   Scattered Clouds
4:58 AM 51.6 °F 51.6 °F 100% 30.09 in 10.0 mi SW 8.1 mph - N/A   Partly Cloudy
5:28 AM 51.8 °F 51.8 °F 100% 30.12 in 10.0 mi WSW 9.2 mph - N/A   Mostly Cloudy
5:58 AM 52.7 °F 52.7 °F 100% 30.12 in 30.0 mi SW 6.9 mph - N/A   Mostly Cloudy
6:58 AM 53.6 °F 53.6 °F 100% 30.13 in 50.0 mi SW 12.7 mph - N/A   Mostly Cloudy
7:48 AM 53.6 °F 53.6 °F 100% 30.15 in 50.0 mi SW 10.4 mph - N/A   Mostly Cloudy
7:58 AM 54.3 °F 54.3 °F 100% 30.14 in 50.0 mi SW 10.4 mph - N/A   Overcast
8:58 AM 56.1 °F 55.9 °F 99% 30.16 in 60.0 mi WSW 11.5 mph - N/A   Mostly Cloudy
9:40 AM 59.0 °F 55.4 °F 88% 30.16 in 60.0 mi SW 17.3 mph 23.0 mph N/A   Mostly Cloudy
9:58 AM 60.8 °F 52.9 °F 75% 30.15 in 60.0 mi SW 20.7 mph 26.5 mph N/A   Mostly Cloudy
10:58 AM 61.7 °F 51.6 °F 69% 30.14 in 60.0 mi WSW 18.4 mph 24.2 mph N/A   Mostly Cloudy
11:54 AM 64.4 °F 50.0 °F 59% 30.13 in 70.0 mi SW 23.0 mph 29.9 mph N/A   Mostly Cloudy
11:58 AM 64.0 °F 48.9 °F 58% 30.11 in 70.0 mi SW 25.3 mph 31.1 mph N/A   Mostly Cloudy
12:58 PM 64.9 °F 46.6 °F 51% 30.08 in 90.0 mi SW 18.4 mph 28.8 mph N/A   Mostly Cloudy
1:47 PM 64.4 °F 48.2 °F 56% 30.09 in 90.0 mi SW 28.8 mph 35.7 mph N/A   Mostly Cloudy
1:58 PM 63.9 °F 47.7 °F 56% 30.07 in 90.0 mi SW 26.5 mph 31.1 mph N/A   Mostly Cloudy
2:58 PM 63.9 °F 48.0 °F 56% 30.07 in 80.0 mi SW 25.3 mph 34.5 mph N/A   Mostly Cloudy
3:58 PM 61.5 °F 48.9 °F 63% 30.09 in 70.0 mi SW 20.7 mph 31.1 mph N/A   Mostly Cloudy
4:58 PM 59.0 °F 49.6 °F 71% 30.09 in 60.0 mi SW 8.1 mph - N/A   Mostly Cloudy
5:58 PM 56.8 °F 50.5 °F 79% 30.09 in 30.0 mi SW 11.5 mph - N/A   Mostly Cloudy
6:58 PM 54.9 °F 51.6 °F 89% 30.12 in 30.0 mi SW 6.9 mph - N/A   Mostly Cloudy
7:58 PM 53.1 °F 52.0 °F 96% 30.11 in 30.0 mi SW 9.2 mph - N/A   Mostly Cloudy
8:58 PM 52.5 °F 52.0 °F 98% 30.12 in 30.0 mi SSW 8.1 mph - N/A   Scattered Clouds
9:58 PM 50.9 °F 50.9 °F 100% 30.11 in 30.0 mi SW 5.8 mph - N/A   Scattered Clouds
10:58 PM 53.4 °F 53.2 °F 99% 30.09 in 10.0 mi SW 9.2 mph - N/A   Clear
11:58 PM 53.4 °F 52.5 °F 97% 30.08 in 10.0 mi SW 9.2 mph - N/A   Partly Cloudy